• In Belgien
  • Länderverzeichnis
  • Für 7 Tage
  • Wassertemperatur
  • Satellitenkarten
  • Wetterkarte
  • Widgets
  • user-avatar
    Anmelden

    Stündliche Wetter Algier

    Heute, 25 September, Montag

    Zeit Temperatur Niederschläge Wind Luftdruck Luftfeuchtigkeit
    00:00 +23°C° 0 mm 2 m/S 751 mmHg 71%
    01:00 +23°C° 0 mm 2 m/S 751 mmHg 68%
    02:00 +22°C° 0 mm 1 m/S 751 mmHg 65%
    03:00 +22°C° 0 mm 1 m/S 751 mmHg 63%
    04:00 +22°C° 0 mm 1 m/S 751 mmHg 59%
    05:00 +22°C° 0 mm 1 m/S 751 mmHg 56%
    06:00 +22°C° 0 mm 1 m/S 751 mmHg 53%
    07:00 +24°C° 0 mm 1 m/S 751 mmHg 44%
    08:00 +26°C° 0 mm 1 m/S 751 mmHg 34%
    09:00 +29°C° 0 mm 1 m/S 751 mmHg 25%
    10:00 +30°C° 0 mm 1 m/S 751 mmHg 22%
    11:00 +31°C° 0 mm 2 m/S 751 mmHg 20%
    12:00 +32°C° 0 mm 2 m/S 751 mmHg 17%
    13:00 +32°C° 0 mm 2 m/S 751 mmHg 18%
    14:00 +32°C° 0 mm 2 m/S 751 mmHg 20%
    15:00 +33°C° 0 mm 3 m/S 750 mmHg 21%
    16:00 +30°C° 0 mm 2 m/S 750 mmHg 27%
    17:00 +28°C° 0 mm 2 m/S 750 mmHg 32%
    18:00 +27°C° 0 mm 1 m/S 750 mmHg 38%
    19:00 +26°C° 0 mm 1 m/S 750 mmHg 39%
    20:00 +26°C° 0 mm 1 m/S 750 mmHg 41%
    21:00 +25°C° 0 mm 1 m/S 751 mmHg 42%
    22:00 +25°C° 0 mm 1 m/S 750 mmHg 41%
    23:00 +25°C° 0 mm 1 m/S 750 mmHg 39%

    Morgen, 26 September, Dienstag

    Zeit Temperatur Niederschläge Wind Luftdruck Luftfeuchtigkeit
    00:00 +25°C° 0 mm 1 m/S 750 mmHg 38%
    01:00 +24°C° 0 mm 1 m/S 750 mmHg 37%
    02:00 +24°C° 0 mm 1 m/S 750 mmHg 36%
    03:00 +24°C° 0 mm 1 m/S 749 mmHg 36%
    04:00 +23°C° 0 mm 1 m/S 749 mmHg 37%
    05:00 +23°C° 0 mm 1 m/S 749 mmHg 38%
    06:00 +23°C° 0 mm 1 m/S 749 mmHg 40%
    07:00 +23°C° 0 mm 0 m/S 750 mmHg 34%
    08:00 +25°C° 0 mm 0 m/S 750 mmHg 29%
    09:00 +28°C° 0 mm 0 m/S 750 mmHg 23%
    10:00 +31°C° 0 mm 1 m/S 750 mmHg 22%
    11:00 +32°C° 0 mm 2 m/S 750 mmHg 20%
    12:00 +34°C° 0 mm 3 m/S 750 mmHg 19%
    13:00 +33°C° 0 mm 3 m/S 750 mmHg 22%
    14:00 +33°C° 0 mm 4 m/S 749 mmHg 25%
    15:00 +32°C° 0 mm 4 m/S 749 mmHg 28%
    16:00 +30°C° 0 mm 4 m/S 749 mmHg 34%
    17:00 +28°C° 0 mm 5 m/S 749 mmHg 40%
    18:00 +26°C° 0 mm 5 m/S 750 mmHg 47%
    19:00 +26°C° 0 mm 4 m/S 750 mmHg 52%
    20:00 +25°C° 0 mm 4 m/S 751 mmHg 57%
    21:00 +23°C° 0 mm 4 m/S 751 mmHg 62%
    22:00 +23°C° 0 mm 4 m/S 751 mmHg 65%
    23:00 +22°C° 0 mm 3 m/S 751 mmHg 67%

    übermorgen, 27 September, Mittwoch

    Zeit Temperatur Niederschläge Wind Luftdruck Luftfeuchtigkeit
    00:00 +22°C° 0 mm 3 m/S 751 mmHg 70%
    01:00 +22°C° 0 mm 3 m/S 751 mmHg 71%
    02:00 +21°C° 0 mm 3 m/S 750 mmHg 72%
    03:00 +21°C° 0 mm 3 m/S 750 mmHg 73%
    04:00 +21°C° 0 mm 3 m/S 751 mmHg 76%
    05:00 +21°C° 0 mm 3 m/S 751 mmHg 79%
    06:00 +20°C° 0 mm 3 m/S 751 mmHg 82%
    07:00 +22°C° 0 mm 3 m/S 751 mmHg 74%
    08:00 +24°C° 0 mm 3 m/S 752 mmHg 66%
    09:00 +26°C° 0 mm 3 m/S 752 mmHg 59%
    10:00 +27°C° 0 mm 3 m/S 752 mmHg 54%
    11:00 +28°C° 0 mm 4 m/S 752 mmHg 49%
    12:00 +29°C° 0 mm 4 m/S 752 mmHg 44%
    13:00 +29°C° 0 mm 4 m/S 751 mmHg 46%
    14:00 +29°C° 0 mm 4 m/S 751 mmHg 48%
    15:00 +29°C° 0 mm 5 m/S 751 mmHg 50%
    16:00 +28°C° 0 mm 4 m/S 751 mmHg 57%
    17:00 +26°C° 0 mm 4 m/S 751 mmHg 64%
    18:00 +25°C° 0 mm 4 m/S 752 mmHg 71%
    19:00 +23°C° 0 mm 4 m/S 752 mmHg 74%
    20:00 +24°C° 0 mm 3 m/S 752 mmHg 78%
    21:00 +22°C° 0 mm 3 m/S 753 mmHg 81%
    22:00 +22°C° 0 mm 3 m/S 753 mmHg 82%
    23:00 +21°C° 0 mm 2 m/S 753 mmHg 84%

    28 September, Donnerstag

    Zeit Temperatur Niederschläge Wind Luftdruck Luftfeuchtigkeit
    00:00 +21°C° 0 mm 2 m/S 753 mmHg 86%
    01:00 +21°C° 0 mm 2 m/S 752 mmHg 86%
    02:00 +20°C° 0 mm 2 m/S 752 mmHg 86%
    03:00 +20°C° 0 mm 2 m/S 752 mmHg 86%
    04:00 +20°C° 0 mm 2 m/S 752 mmHg 86%
    05:00 +20°C° 0 mm 2 m/S 753 mmHg 85%
    06:00 +19°C° 0 mm 2 m/S 753 mmHg 84%
    07:00 +21°C° 0 mm 2 m/S 753 mmHg 74%
    08:00 +24°C° 0 mm 2 m/S 753 mmHg 64%
    09:00 +25°C° 0 mm 3 m/S 754 mmHg 54%
    10:00 +26°C° 0 mm 3 m/S 754 mmHg 49%
    11:00 +28°C° 0 mm 4 m/S 753 mmHg 44%
    12:00 +29°C° 0 mm 4 m/S 753 mmHg 39%
    13:00 +29°C° 0 mm 4 m/S 753 mmHg 42%
    14:00 +28°C° 0 mm 4 m/S 752 mmHg 44%
    15:00 +28°C° 0 mm 5 m/S 752 mmHg 46%
    16:00 +27°C° 0 mm 4 m/S 752 mmHg 54%
    17:00 +26°C° 0 mm 4 m/S 752 mmHg 61%
    18:00 +23°C° 0 mm 4 m/S 753 mmHg 68%
    19:00 +24°C° 0 mm 3 m/S 753 mmHg 72%
    20:00 +22°C° 0 mm 3 m/S 753 mmHg 75%
    21:00 +21°C° 0 mm 3 m/S 753 mmHg 79%
    22:00 +21°C° 0 mm 2 m/S 753 mmHg 80%
    23:00 +21°C° 0 mm 2 m/S 753 mmHg 82%

    29 September, Freitag

    Zeit Temperatur Niederschläge Wind Luftdruck Luftfeuchtigkeit
    00:00 +20°C° 0 mm 2 m/S 753 mmHg 83%
    01:00 +20°C° 0 mm 2 m/S 753 mmHg 83%
    02:00 +20°C° 0 mm 2 m/S 752 mmHg 83%
    03:00 +19°C° 0 mm 2 m/S 752 mmHg 83%
    04:00 +19°C° 0 mm 2 m/S 752 mmHg 82%
    05:00 +19°C° 0 mm 2 m/S 752 mmHg 80%
    06:00 +19°C° 0 mm 2 m/S 752 mmHg 79%
    07:00 +21°C° 0 mm 2 m/S 753 mmHg 68%
    08:00 +24°C° 0 mm 3 m/S 753 mmHg 57%
    09:00 +26°C° 0 mm 3 m/S 753 mmHg 47%
    10:00 +27°C° 0 mm 3 m/S 752 mmHg 42%
    11:00 +28°C° 0 mm 3 m/S 752 mmHg 37%
    12:00 +29°C° 0 mm 4 m/S 752 mmHg 32%
    13:00 +29°C° 0 mm 4 m/S 752 mmHg 35%
    14:00 +29°C° 0 mm 4 m/S 751 mmHg 39%
    15:00 +29°C° 0 mm 5 m/S 751 mmHg 42%
    16:00 +27°C° 0 mm 5 m/S 751 mmHg 51%
    17:00 +26°C° 0 mm 4 m/S 751 mmHg 60%
    18:00 +23°C° 0 mm 4 m/S 751 mmHg 69%
    19:00 +23°C° 0 mm 4 m/S 751 mmHg 72%
    20:00 +22°C° 0 mm 3 m/S 752 mmHg 76%
    21:00 +21°C° 0 mm 3 m/S 752 mmHg 79%
    22:00 +21°C° 0 mm 2 m/S 752 mmHg 80%
    23:00 +21°C° 0 mm 2 m/S 752 mmHg 81%

    30 September, Samstag

    Zeit Temperatur Niederschläge Wind Luftdruck Luftfeuchtigkeit
    00:00 +20°C° 0 mm 2 m/S 751 mmHg 82%
    01:00 +20°C° 0 mm 2 m/S 751 mmHg 82%
    02:00 +20°C° 0 mm 2 m/S 751 mmHg 82%
    03:00 +20°C° 0 mm 2 m/S 751 mmHg 82%
    04:00 +19°C° 0 mm 2 m/S 751 mmHg 81%
    05:00 +19°C° 0 mm 2 m/S 751 mmHg 80%
    06:00 +19°C° 0 mm 2 m/S 751 mmHg 79%
    07:00 +21°C° 0 mm 2 m/S 751 mmHg 67%
    08:00 +24°C° 0 mm 2 m/S 752 mmHg 56%
    09:00 +26°C° 0 mm 2 m/S 752 mmHg 45%
    10:00 +27°C° 0 mm 3 m/S 751 mmHg 40%
    11:00 +28°C° 0 mm 3 m/S 751 mmHg 35%
    12:00 +30°C° 0 mm 3 m/S 751 mmHg 30%
    13:00 +30°C° 0 mm 4 m/S 751 mmHg 32%
    14:00 +29°C° 0 mm 4 m/S 750 mmHg 35%
    15:00 +29°C° 0 mm 4 m/S 750 mmHg 38%
    16:00 +28°C° 0 mm 4 m/S 750 mmHg 46%
    17:00 +26°C° 0 mm 4 m/S 750 mmHg 53%
    18:00 +25°C° 0 mm 4 m/S 750 mmHg 61%
    19:00 +24°C° 0 mm 3 m/S 750 mmHg 64%
    20:00 +24°C° 0 mm 3 m/S 751 mmHg 67%
    21:00 +23°C° 0 mm 2 m/S 751 mmHg 70%
    22:00 +23°C° 0 mm 2 m/S 750 mmHg 69%
    23:00 +23°C° 0 mm 2 m/S 750 mmHg 67%
    Mehr zeigen